Theta_e
324 323 321 320 319 319 318 317 317 316 316 316 316 315 313 313 313 312 311 312 312 311 311 310 309 309 307 307 307 307 307 307 306 308 311 313 314 316 327 333 331 329 328
325 323 321 320 320 318 318 317 317 316 317 316 316 314 314 313 312 311 311 312 311 310 311 310 309 312 308 311 309 305 305 306 306 304 307 310 311 316 323 325 327 329 327
324 322 319 319 319 319 318 318 317 316 316 315 315 313 313 312 311 311 311 311 311 310 310 309 309 309 309 311 310 310 310 310 306 305 306 307 309 315 321 325 324 324 323
322 321 320 319 320 319 319 318 317 316 315 314 314 313 312 312 312 311 311 309 308 309 309 309 310 310 309 311 311 310 310 309 308 304 305 306 307 311 319 320 317 318 318
322 321 320 321 321 319 317 317 316 316 316 314 312 311 310 309 311 309 307 305 304 304 306 308 309 311 315 314 313 311 310 309 309 307 304 302 304 307 310 319 316 314 314
321 321 322 321 319 317 316 316 315 313 311 309 308 308 306 308 307 306 307 304 304 304 305 306 308 311 310 311 311 312 312 309 308 308 307 306 307 306 310 316 314 309 307
319 320 319 318 317 315 314 313 310 307 305 304 304 304 304 303 303 302 304 305 304 303 303 304 305 307 308 307 307 308 309 309 310 310 307 307 307 306 306 308 314 313 309
312 315 316 315 313 312 309 306 304 303 302 301 301 301 301 302 302 301 302 302 302 302 303 303 303 304 305 305 304 305 306 307 308 310 310 311 311 309 309 309 314 315 310
312 311 311 309 306 305 303 303 301 300 299 299 300 299 299 299 300 299 300 300 301 301 302 302 303 302 302 300 303 303 303 304 307 306 306 305 304 303 307 308 306 309 305
307 307 306 306 304 303 302 301 300 299 299 300 299 299 301 299 299 298 298 298 297 297 299 300 302 301 300 299 302 302 301 302 305 306 307 305 304 307 304 310 308 307 308
307 306 306 304 302 301 300 299 298 298 298 298 298 298 298 299 298 297 297 296 296 296 297 297 299 298 297 296 297 300 302 303 305 305 307 308 309 308 308 307 310 310 310
306 304 302 301 303 302 300 298 298 297 296 295 294 294 295 296 298 297 296 296 298 296 296 297 298 297 296 295 296 297 296 298 301 303 304 305 306 307 309 308 308 310 315
302 300 300 301 301 301 299 297 296 294 293 293 293 292 294 296 296 297 295 295 296 296 297 297 296 295 295 296 296 296 296 297 297 298 300 303 306 308 310 309 308 309 311
299 299 299 299 298 297 297 296 294 292 291 292 291 291 293 294 294 296 296 296 296 296 296 296 296 296 295 296 296 297 297 297 296 297 298 301 307 308 307 309 306 307 309
299 298 297 295 294 293 293 293 293 293 292 290 290 291 291 292 294 294 293 293 294 294 293 293 293 293 293 294 295 296 296 296 296 296 297 298 302 305 307 309 308 308 307
296 295 293 293 292 292 291 292 294 294 294 293 292 292 294 293 293 293 292 292 291 291 291 292 292 294 294 295 295 296 297 296 296 297 297 298 299 301 304 307 309 309 308
293 292 292 292 292 291 291 290 289 293 294 293 292 292 292 292 292 292 292 291 291 291 293 295 296 298 298 298 299 299 299 300 298 297 297 298 300 302 303 306 309 309 309
292 294 291 291 291 290 290 289 290 292 291 292 293 292 293 292 292 292 291 291 296 297 298 298 298 298 298 298 298 299 300 301 298 297 297 299 301 305 305 306 309 308 309
292 291 291 291 291 291 290 290 291 292 292 292 293 294 293 293 292 292 292 296 296 297 298 298 299 298 298 298 298 299 300 301 298 298 298 300 304 305 305 310 310 304 305
292 293 292 291 291 293 292 292 291 292 292 292 292 293 294 294 293 295 297 297 298 298 298 298 298 298 297 297 300 300 299 297 298 298 300 303 304 306 308 311 310 308 309
292 291 288 291 293 292 291 289 292 292 292 292 293 294 289 291 294 295 296 297 298 298 298 298 297 296 296 299 300 300 300 299 299 300 301 304 306 307 313 312 311 310 310
292 292 291 290 292 293 290 292 292 292 292 292 293 294 289 295 295 296 296 297 298 298 299 298 297 295 296 299 305 302 302 300 301 303 304 305 307 309 313 312 310 310 309
295 293 291 291 293 291 291 292 292 292 292 292 293 294 294 294 295 295 295 296 297 297 298 297 296 294 296 298 307 307 305 305 307 308 308 308 312 314 312 310 310 309 308
295 294 292 293 293 292 292 292 292 290 291 292 292 293 293 293 294 294 295 295 296 297 297 297 296 294 293 295 298 309 310 310 311 310 311 314 312 309 311 310 310 309 309
295 293 291 293 293 292 292 291 291 287 287 288 289 290 291 292 292 293 294 295 295 296 296 296 295 294 292 293 292 298 298 292 311 302 313 314 312 312 311 310 310 309 309
293 292 293 294 292 290 289 287 286 286 286 287 288 289 290 290 291 292 293 293 294 294 295 295 294 294 292 292 291 288 288 292 300 297 314 313 312 311 311 310 309 309 308
Wind_Speed
12 11 10 8 8 7 6 6 7 6 6 6 6 5 5 6 6 5 6 6 6 6 5 6 7 6 5 4 4 3 4 3 7 5 4 5 5 7 8 2 3 4 6
12 10 9 8 8 8 7 7 7 7 6 6 6 5 5 6 6 6 6 6 6 7 7 6 7 6 8 6 5 6 5 5 4 10 6 6 4 7 7 4 3 3 4
12 11 7 8 9 10 9 8 7 7 7 6 5 6 6 6 6 6 6 6 7 7 6 7 7 7 10 8 12 9 8 7 4 4 7 3 4 4 5 2 2 2 2
12 10 11 10 12 11 10 9 8 7 7 7 7 6 6 6 6 6 6 6 6 5 6 7 8 10 12 11 10 10 9 9 7 5 5 6 3 5 3 4 2 1 3
12 12 14 13 13 11 9 8 7 7 7 6 5 5 5 4 4 4 5 6 6 7 7 8 9 12 19 16 9 10 10 8 7 6 5 3 4 3 4 2 3 2 3
16 16 14 12 10 9 7 8 7 6 4 2 3 3 3 3 6 8 8 6 8 8 10 10 10 16 16 18 18 20 17 13 12 8 8 6 7 3 3 2 2 3 3
15 13 9 9 8 7 7 6 4 3 3 2 1 1 3 4 8 11 13 9 8 9 11 12 12 10 14 14 16 18 18 20 21 15 15 13 9 6 3 5 5 4 4
4 7 8 9 8 7 6 6 5 4 3 1 2 3 4 5 10 12 15 10 10 11 12 12 14 14 14 14 14 15 15 14 14 11 14 15 13 6 8 6 5 5 4
8 8 8 10 9 8 7 5 2 2 2 3 4 5 6 7 11 13 12 9 10 11 11 12 13 14 16 16 15 16 16 16 13 18 18 17 14 13 12 5 8 5 2
9 9 9 8 8 7 6 4 3 3 3 3 5 6 8 7 9 10 9 4 11 10 12 13 17 15 17 17 16 15 16 15 13 13 11 15 18 17 18 14 9 9 4
7 9 8 7 8 6 5 2 1 3 4 5 5 5 6 7 7 12 13 8 9 10 11 12 12 20 21 21 19 15 18 14 14 13 13 11 11 12 10 12 12 11 8
7 6 6 6 4 4 5 1 2 3 4 5 4 5 4 6 10 10 12 14 17 12 14 13 14 21 20 21 19 25 24 18 12 12 12 12 13 12 12 12 14 13 11
8 6 6 5 5 3 3 3 2 2 2 4 4 5 6 7 8 12 15 16 18 13 11 17 26 27 28 23 29 29 27 14 14 14 15 15 15 14 12 12 13 14 14
7 6 6 6 3 1 1 1 2 2 3 4 4 5 8 9 8 8 9 11 16 15 17 15 18 22 26 24 22 18 14 14 15 15 15 14 12 13 13 11 12 12 10
6 4 3 3 3 3 2 3 2 3 2 3 4 5 8 10 10 14 17 14 14 17 20 13 12 12 12 12 12 14 13 13 14 15 14 13 13 10 13 11 12 12 11
6 5 3 3 3 3 3 4 6 6 10 10 11 7 8 14 20 22 25 26 27 27 13 12 13 13 14 13 13 13 12 17 14 13 14 14 14 15 13 12 13 14 13
6 4 4 5 4 4 4 4 5 7 7 8 11 14 15 17 22 22 25 27 27 22 10 12 12 12 14 13 13 13 13 11 14 13 14 14 14 14 17 14 14 13 13
6 8 6 5 4 4 3 3 3 5 8 10 8 11 15 16 19 22 25 21 12 9 10 12 13 13 13 13 13 12 12 11 12 13 13 14 15 14 14 14 13 15 15
5 4 5 4 4 3 3 4 4 5 6 7 10 10 11 15 19 20 17 8 11 13 12 12 13 13 13 12 13 13 13 11 12 13 13 14 12 14 14 13 14 17 15
5 7 6 4 3 3 3 3 4 5 6 6 7 9 11 14 12 13 12 12 12 12 13 14 13 12 12 12 9 4 3 6 10 11 12 13 14 12 14 15 14 14 13
4 4 6 4 3 1 2 3 4 4 5 7 8 9 12 9 11 11 12 12 13 13 14 14 13 12 11 10 3 3 3 5 8 10 11 9 12 13 12 14 13 13 12
5 4 4 3 2 1 2 3 4 4 6 7 9 9 12 8 9 10 12 13 14 14 12 13 12 12 11 8 4 3 3 6 8 9 11 12 11 12 11 13 14 14 13
6 5 4 2 1 1 3 3 4 4 6 7 8 8 9 10 10 11 12 13 13 14 13 12 12 12 11 8 4 2 4 3 7 9 10 14 11 12 12 13 14 12 12
6 5 4 2 1 2 3 4 5 6 6 6 7 8 9 10 11 13 13 13 14 14 14 14 13 16 13 10 6 2 3 3 3 8 8 6 12 13 12 12 12 15 12
6 4 4 3 1 2 4 5 5 5 5 6 7 7 9 10 11 12 13 13 13 14 16 16 14 18 17 17 13 8 4 8 6 8 6 10 14 15 12 11 12 12 13
5 4 3 2 2 4 4 4 5 5 5 6 7 8 8 10 11 12 12 14 14 14 18 15 19 24 22 18 17 11 6 8 9 10 11 10 11 9 9 11 14 11 13
Wind_Direction
171 166 163 162 152 156 162 160 169 175 191 197 217 231 245 259 264 270 267 266 258 258 248 237 249 247 246 250 256 248 250 232 268 287 270 298 302 323 312 252 197 177 201
166 159 169 153 155 168 180 184 182 194 197 204 216 230 246 256 262 258 265 264 258 258 249 247 252 269 270 261 244 250 238 239 249 279 277 289 272 308 293 256 184 198 195
161 164 158 166 171 185 189 188 189 191 201 211 213 227 244 251 257 260 256 263 258 249 248 251 258 259 271 267 274 270 274 269 238 240 278 266 276 276 292 263 246 138 125
165 167 175 183 189 191 191 190 186 189 196 210 219 230 239 250 253 259 264 269 273 270 262 257 259 263 265 266 260 259 263 270 251 241 252 273 272 279 269 265 219 86 113
172 177 192 194 195 190 184 182 181 194 205 207 224 243 256 254 254 260 270 270 264 263 259 260 269 268 269 261 262 264 265 257 253 249 248 252 272 280 250 234 209 120 80
183 194 196 191 184 179 165 176 191 201 210 195 241 258 286 276 278 279 281 270 265 254 268 265 259 264 270 271 266 262 259 263 256 248 254 239 253 235 298 261 175 138 163
191 195 182 170 166 157 157 169 174 149 110 109 68 0 295 279 262 265 268 274 271 272 275 274 269 266 265 268 264 266 261 251 245 252 252 246 242 223 212 272 248 197 173
192 141 130 134 127 118 119 115 117 127 135 165 257 254 253 260 258 264 270 279 274 272 269 269 269 268 257 252 256 261 259 255 254 244 244 250 249 219 203 217 258 229 90
112 107 100 105 110 116 121 127 125 124 196 232 236 256 258 264 259 270 280 282 277 276 271 265 263 263 258 253 253 253 253 253 246 240 235 240 224 230 197 197 242 249 160
84 96 106 113 118 116 121 158 188 200 233 261 270 253 257 264 258 263 266 256 284 286 286 282 271 265 267 253 250 251 255 252 250 250 246 243 235 232 201 205 219 217 196
92 97 93 90 100 126 137 138 293 296 282 278 280 279 272 265 261 252 261 280 284 289 285 279 269 257 256 261 255 256 254 257 251 243 243 240 225 221 213 210 210 211 211
108 111 114 110 93 76 66 302 256 275 297 309 304 285 269 270 266 276 272 266 277 282 277 276 274 270 263 256 253 253 253 253 252 246 237 234 229 225 215 200 204 207 220
101 112 99 97 85 74 209 227 264 344 4 322 310 300 302 299 295 290 282 278 274 271 270 273 276 273 269 266 259 256 253 244 240 236 233 232 228 228 213 190 196 203 207
117 104 72 69 90 67 167 122 72 31 332 311 313 309 304 300 301 298 301 300 294 291 287 279 272 268 264 262 262 253 240 236 231 231 228 228 229 211 202 183 187 190 194
94 110 138 138 115 103 69 74 53 291 250 317 286 286 304 302 301 298 293 298 298 289 290 284 276 268 263 256 251 247 240 233 226 223 224 218 213 199 188 180 187 184 192
121 128 130 112 86 71 51 358 344 340 334 314 301 284 296 280 290 293 296 297 291 286 284 276 271 268 264 262 256 250 236 229 221 217 215 212 210 206 200 190 189 187 185
128 121 88 67 61 45 23 17 344 324 288 288 293 289 286 285 294 296 298 292 289 290 269 273 272 274 273 268 263 256 250 228 212 207 205 204 203 199 190 185 188 180 177
97 94 87 83 74 56 27 354 333 333 327 321 301 285 300 295 300 301 294 298 302 296 287 288 285 283 281 276 269 260 249 235 200 195 194 194 201 192 176 182 191 170 176
98 95 103 95 84 69 27 358 335 320 304 301 310 317 321 314 305 289 289 295 302 303 300 297 295 290 286 282 274 263 243 231 191 185 184 187 195 171 180 188 175 169 163
108 110 91 92 78 45 21 339 318 305 310 317 320 321 322 326 330 330 323 319 312 309 310 307 306 299 296 287 277 271 214 171 174 174 179 182 180 175 188 169 160 158 163
129 119 113 102 95 26 330 310 292 304 318 318 314 310 297 314 313 315 317 317 318 316 314 314 313 313 305 300 253 257 189 158 169 170 172 171 164 175 183 152 149 156 148
138 134 131 142 145 19 302 306 309 313 317 321 315 312 314 320 319 320 324 323 323 321 321 320 320 321 313 300 272 159 160 156 174 173 164 168 170 188 143 141 147 154 150
131 131 141 159 177 306 313 327 323 322 320 306 314 325 330 332 331 330 331 327 327 327 329 332 334 338 337 332 307 112 134 137 134 159 155 150 177 169 134 143 149 148 151
121 125 129 179 171 298 342 326 328 323 313 325 330 333 337 338 337 336 335 333 332 335 337 341 349 353 345 349 320 172 142 156 99 126 119 128 114 120 130 137 146 149 148
120 128 163 157 155 308 337 351 348 346 342 344 340 340 343 345 343 342 340 342 339 343 347 348 352 354 357 4 10 349 113 124 119 132 101 108 114 128 137 141 148 153 155
130 154 161 164 49 21 14 15 7 357 352 344 345 353 352 351 348 348 347 350 347 350 354 355 353 1 5 14 11 10 27 118 122 110 123 126 128 132 140 145 154 156 155